User: anonymous   Login
Location: Newport
(44.6370°N, 124.0520°W)
Time: 19:30:50
(UTC-07:00)
Language:

Hubble Space Telescope - Orbit

View from above orbital plane
View from above orbital plane
View from above satellite
View from above satellite

Ground track
Ground track

The orbit data is extracted from the following two-line orbital elements,

1 20580U 90037B   17294.36400675 +.00000723 +00000-0 +33578-4 0  9990
2 20580 028.4694 253.7050 0002959 091.6774 042.1716 15.08893365309271
Epoch (UTC): 21 October 2017 08:44:10
Eccentricity: 0.0002959
inclination: 28.4694°
perigee height: 537 km
apogee height: 541 km
right ascension of ascending node: 253.7050°
argument of perigee: 91.6774°
revolutions per day: 15.08893365
mean anomaly at epoch: 42.1716°
orbit number at epoch: 30927

The dashed part of the orbit path shows where the satellite is in the earth's shadow,  

DLR